Lid_Strength_Index
4 4 4 4 3 3 3 3 2 1 2 1 2 2 2 1 1 1 1 1 2 2
4 4 4 4 3 4 3 2 1 1 1 2 2 2 1 1 1 1 1 1 1 2
3 3 3 4 4 4 3 3 3 3 4 4 4 3 2 2 2 1 1 1 1 2
3 3 3 3 4 4 3 4 4 5 4 3 4 2 2 2 1 2 2 1 2 2
2 2 3 3 3 3 3 3 2 3 3 3 3 3 3 2 2 2 2 2 2 2
2 2 3 3 3 3 3 3 2 2 3 2 2 2 2 2 2 2 2 3 2 2
2 3 3 2 2 2 2 2 2 2 2 2 2 2 2 3 3 3 4 3 3 2
6 5 6 6 7 6 6 6 6 6 7 7 9 10 9 3 3 4 6 8 9 10
11 10 11 11 11 10 11 11 11 11 11 11 11 12 12 8 5 6 8 10 11 12
15 14 14 14 14 14 13 13 13 13 13 14 13 13 13 12 11 12 11 11 12 12
16 16 15 16 16 16 15 15 14 14 15 14 14 13 13 13 13 13 14 14 14 14
16 17 17 17 17 16 16 16 16 15 15 16 15 14 14 14 14 15 15 14 15 15
16 16 17 17 17 17 17 17 17 17 16 16 16 15 15 15 15 16 16 15 15 15
17 16 17 17 17 17 17 17 18 18 17 17 16 16 16 15 16 17 17 17 17 16